DW1850 Weather Reports


Display with metric or nautical units.
time (UTC)temp
F
wind
direction
speed
MPH
gust
MPH
rain 1hr
in
rain 24hr
in
rain mn
in
humidity
%
barometer
mb
20260905182946 94 150 0.0 10.0 0.00 0.00 0.00 51 1010.6
20260905175946 93 159 0.0 9.0 0.00 0.00 0.00 53 1011.1
20260905172945 92 173 0.0 7.0 0.00 0.00 0.00 52 1011.7
20260905165944 91 180 0.0 1.0 0.00 0.00 0.00 57 1011.8
20260905162943 87 181 0.0 5.0 0.00 0.00 0.00 66 1011.8
20260905155942 87 178 0.0 2.0 0.00 0.00 0.00 70 1011.9
20260905145941 83 155 0.0 8.0 0.00 0.00 0.00 80 1011.9
20260905142940 82 136 0.0 6.0 0.00 0.00 0.00 84 1011.7
20260905135940 80 134 0.0 6.0 0.00 0.00 0.00 90 1011.5
20260905133008 78 128 0.0 0.0 0.00 0.00 0.00 94 1011.4
20260905130008 77 136 0.0 0.0 0.00 0.00 0.00 95 1011.0
20260905123007 75 136 0.0 0.0 0.00 0.00 0.00 94 1010.7
20260905120006 75 136 0.0 0.0 0.00 0.00 0.00 93 1010.6
20260905113005 76 136 0.0 0.0 0.00 0.00 0.00 92 1010.5
20260905110005 77 136 0.0 0.0 0.00 0.00 0.00 93 1010.2
20260905100003 78 136 0.0 0.0 0.00 0.00 0.00 91 1010.4
20260905093002 78 136 0.0 0.0 0.00 0.00 0.00 90 1010.3
20260905090002 79 136 0.0 6.0 0.00 0.00 0.00 89 1010.4
20260905083001 79 135 0.0 8.0 0.00 0.00 0.00 88 1010.5
20260905072959 80 133 0.0 0.0 0.00 0.00 0.00 86 1010.9
20260905065959 80 133 0.0 6.0 0.00 0.00 0.00 84 1011.0
20260905062958 81 132 0.0 8.0 0.00 0.00 0.00 83 1010.9
20260905055957 81 128 0.0 8.0 0.00 0.00 0.00 81 1010.9
20260905052956 82 128 0.0 7.0 0.00 0.00 0.00 78 1010.9
20260905045956 82 128 0.0 8.0 0.00 0.00 0.00 77 1011.1
20260905042955 83 128 0.0 9.0 0.00 0.00 0.00 75 1011.0
20260905035954 83 126 0.0 6.0 0.00 0.00 0.00 73 1010.8
20260905032953 83 126 0.0 7.0 0.00 0.00 0.00 71 1010.7
20260905022952 85 127 0.0 6.0 0.00 0.00 0.00 71 1010.2
20260905015951 85 127 0.0 8.0 0.00 0.00 0.00 69 1010.0
20260905012950 86 127 0.0 9.0 0.00 0.00 0.00 67 1009.7
20260905005950 87 125 6.0 14.0 0.00 0.00 0.00 63 1009.3
20260905002948 89 119 2.0 14.0 0.00 0.00 0.00 61 1009.2
20260904235948 90 143 7.0 16.0 0.00 0.00 0.00 59 1008.8
20260904225946 93 125 0.0 13.0 0.00 0.00 0.00 46 1008.8
20260904222945 94 148 4.0 10.0 0.00 0.00 0.00 41 1009.1
20260904215945 94 132 8.0 12.0 0.00 0.00 0.00 43 1009.1
20260904212944 93 128 4.0 13.0 0.00 0.00 0.00 46 1009.5
20260904205943 94 103 1.0 15.0 0.00 0.00 0.00 47 1009.9
20260904202942 92 130 12.0 14.0 0.00 0.00 0.00 56 1010.0
20260904200012 92 118 1.0 13.0 0.00 0.00 0.00 60 1010.5
20260904192941 90 123 0.0 17.0 0.00 0.00 0.00 62 1010.6